Regional Weather Roundup
Issued by NWS

Home | Current Version | Previous Version | Graphics & Text | Print | Product List | Glossary On
Versions: 1 2 3 4 5 6 7 8 9 10 11 12 13 14 15 16 17 18 19 20 21 22 23 24 25 26 27 28 29 30 31 32 33 34 35 36 37 38 39 40 41 42 43 44 45 46 47 48 49 50
034
ASUS43 KIND 240559
RWRIN

WEATHER ROUNDUP FOR INDIANA
NATIONAL WEATHER SERVICE INDIANAPOLIS IN
200 AM EDT TUE APR 24 2018

NOTE: "FAIR" INDICATES FEW OR NO CLOUDS BELOW 12,000 FEET WITH NO
SIGNIFICANT WEATHER AND/OR OBSTRUCTIONS TO VISIBILITY.

* - STATION DOES NOT REPORT WEATHER SUCH AS PRECIPITATION OR FOG.

+ - STATION NOT QUALITY CONTROLLED BY THE NATIONAL WEATHER SERVICE.
    USE DATA WITH CAUTION...ESPECIALLY DEWPOINT AND RELATIVE
    HUMIDITY OBSERVATIONS.

INZ001>003-010>013-019-020-240700-
NORTHWEST INDIANA

CITY           SKY/WX    TMP DP  RH WIND       PRES   REMARKS
KNOX *+        CLOUDY    50  48  93 NE5       30.07F
MONTICELLO +   CLOUDY    52  49  90 NE8       30.04F
6HR MIN TEMP:  52; 6HR MAX TEMP:  56; 6HR PCP:  0.01;

RENSSELAER +   CLOUDY    52  46  82 NE10      30.06S

$$

LMZ046-743>745-240700-
SOUTHERN LAKE MICHIGAN

STATION/POSITION TIME  TEMP    WIND        PRES    WAVE
                       AIR SEA DIR/SP/G            HT
                 (UTC) (F)     (DEG/KT/KT) (MB)    (FT)
BURNS HARBOR     0540   43      40/  4/  4 1019.3F
MICHIGAN CITY    0530   49      CALM  /  1   N/A

$$

INZ004-005-014>016-021>024-240700-
NORTH CENTRAL INDIANA

CITY           SKY/WX    TMP DP  RH WIND       PRES   REMARKS
GOSHEN         CLOUDY    52  48  86 E7        30.09F
6HR MIN TEMP:  52; 6HR MAX TEMP:  59; 6HR PCP: TRACE;

SOUTH BEND     CLOUDY    53  48  83 E9        30.10F
6HR MIN TEMP:  52; 6HR MAX TEMP:  58; 6HR PCP: TRACE;

WARSAW +       CLOUDY    50  46  87 E8        30.08F

$$

INZ006>009-017-018-025>027-240700-
NORTHEAST INDIANA

CITY           SKY/WX    TMP DP  RH WIND       PRES   REMARKS
ANGOLA *+      CLOUDY    50  46  87 E7        30.10F
FORT WAYNE     CLOUDY    52  49  89 E8        30.08F
6HR MIN TEMP:  51; 6HR MAX TEMP:  56; 6HR PCP:  0.02;


$$

INZ028-029-035-036-043>045-051>053-240700-
WEST CENTRAL INDIANA

CITY           SKY/WX    TMP DP  RH WIND       PRES   REMARKS
CRAWFORDSVL +  CLOUDY    50  50 100 E7        30.01F
6HR MIN TEMP:  50; 6HR MAX TEMP:  53; 6HR PCP:  0.01;

GREENCASTLE +  CLOUDY    52  48  87 E5        30.01S
LAFAYETTE      CLOUDY    52  50  93 NE10      30.03S
6HR MIN TEMP:  52; 6HR MAX TEMP:  56;

TERRE HAUTE    CLOUDY    53  51  93 E7        29.99S
6HR MIN TEMP:  53; 6HR MAX TEMP:  56; 6HR PCP:  0.01;


$$

INZ030>032-037>040-046>048-054>057-064-065-240700-
CENTRAL INDIANA

CITY           SKY/WX    TMP DP  RH WIND       PRES   REMARKS
GREENWOOD *+   CLOUDY    52  49  89 E8        30.02S
INDIANAPOLIS   CLOUDY    52  50  93 E9        30.01F
6HR MIN TEMP:  52; 6HR MAX TEMP:  56; 6HR PCP: TRACE;

-EAGLE CREEK   LGT RAIN  52  49  89 E6        30.01F FOG
6HR MIN TEMP:  52; 6HR MAX TEMP:  56; 6HR PCP: TRACE;

KOKOMO +       CLOUDY    51  48  89 E8        30.05F
6HR MIN TEMP:  51; 6HR MAX TEMP:  55; 6HR PCP: TRACE;

MT COMFORT *+  CLOUDY    52  52 100 E9        30.03S
SHELBYVILLE    LGT RAIN  53  49  86 E12       30.01F
6HR MIN TEMP:  53; 6HR MAX TEMP:  57; 6HR PCP: TRACE;

ZIONSVILLE +   CLOUDY    51  49  92 E8        30.03F
6HR MIN TEMP:  51; 6HR MAX TEMP:  54;


$$

INZ033-034-041-042-049-050-058-059-240700-
EAST CENTRAL INDIANA

CITY           SKY/WX    TMP DP  RH WIND       PRES   REMARKS
MUNCIE         CLOUDY    53  49  86 E10       30.04F
6HR MIN TEMP:  53; 6HR MAX TEMP:  55; 6HR PCP:  0.01;

RICHMOND +     CLOUDY    50  50 100 E12       30.04F

$$

INZ060-061-067>069-081>083-085>088-240700-
SOUTHWEST INDIANA

CITY           SKY/WX    TMP DP  RH WIND       PRES   REMARKS
EVANSVILLE     CLOUDY    57  55  93 E6        29.95S
6HR MIN TEMP:  55; 6HR MAX TEMP:  60; 6HR PCP:  0.04;

HUNTINGBURG +  CLOUDY    56  52  86 NE7       29.95F
6HR MIN TEMP:  56; 6HR MAX TEMP:  60; 6HR PCP: TRACE;


$$

INZ062-063-066-070>080-084-089>092-240700-
SOUTH CENTRAL AND SOUTHEAST INDIANA

CITY           SKY/WX    TMP DP  RH WIND       PRES   REMARKS
BLOOMINGTON    CLOUDY    54  51  90 E8        29.98F
6HR MIN TEMP:  54; 6HR MAX TEMP:  57;

FRENCH LICK *+ CLOUDY    54 N/A N/A CALM      29.96F
SEYMOUR +      CLOUDY    55  50  82 NE6       29.98F

$$





USA.gov is the U.S. government's official web portal to all federal, state and local government web resources and services.